www.pogodaiklimat.ru

Погода и климат >> Архив погоды >> Индия >> Puri


ПОГОДА в Puri

  • Прогноз погоды в Puri
  • Монитор погоды в Puri
  • Климат города

АРХИВ ПОГОДЫ в Puri

Время (UTC), дата Ветер
(напр.,м/с)
 
Видим.   Явления Облачность Т
(С)
Тd
(С)
f
(%)
Тe
(С)
Тes
(С)
Комфортность P
(гПа)
Po
(гПа)
Тmin
(С)
Tmax
(С)
R
(мм)
R24
(мм)
S
(см)
00 14.09 штиль 0 4000 м 8/4 600 м
[Sc Ac trans Ci fib]
+29.0 +26.2 85 +44 +44 опасность
перегрева
1005.7 1006.0
03 14.09 штиль 0 4000 м 6/3 600 м
[Sc Ac trans Ci fib]
1008.1 1008.0 +27.4
06 14.09 штиль 0 4000 м 8/4 600 м
[Sc Ac trans Ci fib]
1007.7 1008.0
09 14.09 штиль 0 4000 м 6/3 600 м
[Sc diur, vesp Ac trans Ci fib]
1004.9 1005.0
12 14.09 ЮЗ 3 4000 м 8/4 600 м
[Sc diur, vesp Ac trans Ci fib]
1005.1 1005.0 +35.6
15 14.09 штиль 0 4000 м слабый дождь {гроза} 10/5 300 м
[Sc Ac As]
+26.6 +25.2 92 +38 +38 очень
душно
1008.0 1008.0 8
18 14.09 штиль 0 4000 м {гроза, дождь} 10/5 600 м
[Sc Ac As]
+27.4 +24.8 86 +39 +39 очень
душно
1007.0 1007.0 8
21 14.09 штиль 0 4000 м 10/5 600 м
[Sc Ac As]
+27.2 +25.2 89 +39 +39 очень
душно
1005.9 1006.0 8
00 15.09 штиль 0 4000 м 10/5 600 м
[Sc Ac As]
+28.4 +26.7 91 +44 +44 опасность
перегрева
1006.7 1007.0 8
03 15.09 штиль 0 4000 м 8/4 600 м
[Sc Ac trans Ci fib]
1008.7 1009.0 +24.9 8
06 15.09 С 2 4000 м 8/4 600 м
[Sc Ac trans Ci fib]
1007.7 1008.0
09 15.09 Ю 2 4000 м 10/5 600 м
[Sc diur, vesp Ac trans Ci fib]
1004.3 1004.0
12 15.09 штиль 0 4000 м гроза, ливневой дождь 10/6 300 м
[Cb cap Ac As]
1004.7 1005.0 +34.2 17
15 15.09 штиль 0 4000 м {гроза, дождь} 8/6 300 м
[Sc Ac trans]
+27.0 +25.6 92 +40 +40 очень
душно
1007.0 1007.0 17
18 15.09 штиль 0 4000 м {гроза, дождь} 8/6 300 м
[St Ac trans]
+26.2 +25.1 94 +38 +38 очень
душно
1008.2 1008.0 17
21 15.09 Ю 1 4000 м 9/6 300 м
[St Ac trans]
+26.0 +24.9 94 +37 +37 очень
душно
1007.2 1007.0 17
00 16.09 штиль 0 4000 м 8/5 600 м
[Sc Ac trans Ci fib]
+26.6 +24.3 87 +37 +37 очень
душно
1005.7 1006.0 17
03 16.09 С 1 4000 м 6/3 600 м
[Sc Ac trans Ci fib]
1007.0 1007.0 +25.2 17
06 16.09 штиль 0 4000 м 6/4 600 м
[Sc Ac trans Ci fib]
1006.6 1007.0
09 16.09 штиль 0 4000 м слабый дождь {гроза} 10/5 600 м
[Sc Ac As]
1002.8 1003.0 3
12 16.09 штиль 0 4000 м слабый дождь {гроза} 10/5 600 м
[Sc Ac As Ci fib]
1003.4 1003.0 +31.6 3
15 16.09 штиль 0 4000 м 6/3 600 м
[Sc Ac trans Ci fib]
+27.0 +24.7 87 +38 +38 очень
душно
1005.7 1006.0 3
18 16.09 штиль 0 4000 м 3/1 600 м
[Sc Ac trans]
+27.0 +24.7 87 +38 +38 очень
душно
1005.4 1005.0 3
21 16.09 штиль 0 4000 м 8/4 600 м
[Sc Ac trans Ci fib]
+26.2 +24.5 90 +37 +37 очень
душно
1003.5 1004.0 3
00 17.09 штиль 0 4000 м 3/0
[Ac trans Ci fib]
+25.8 +24.1 90 +36 +36 очень
душно
1003.7 1004.0 3
03 17.09 штиль 0 4000 м 4/1 600 м
[Sc Ac trans Ci fib]
1005.2 1005.0 +24.4 3
06 17.09 штиль 0 4000 м 8/3 600 м
[Sc diur, vesp Ac trans]
1004.5 1005.0
09 17.09 штиль 0 4000 м гроза, ливневой дождь 10/6 300 м
[Cb cap As op]
1001.7 1002.0 22
12 17.09 штиль 0 4000 м {гроза, дождь} 8/4 600 м
[Sc Ac trans Ci fib]
1001.9 1002.0 +33.8 23
15 17.09 штиль 0 4000 м 10/6 300 м
[St Ac trans Ci fib]
+27.4 +24.8 86 +39 +39 очень
душно
1004.7 1005.0 23
21 17.09 С 1 4000 м 9/5 300 м
[St Ac trans]
+26.4 +24.7 90 +37 +37 очень
душно
1002.9 1003.0 23
00 18.09 С 2 4000 м 9/5 300 м
[St Ac trans Ci fib]
+26.0 +24.6 92 +37 +37 очень
душно
1002.9 1003.0 23
03 18.09 штиль 0 4000 м 3/1 600 м
[Sc Ci fib]
1004.8 1005.0 +23.9 23
06 18.09 СЗ 1 4000 м 4/1 600 м
[Sc Ci fib]
1004.4 1004.0
09 18.09 С 1 4000 м 8/5 600 м
[Cb calv Ac trans Ci fib]
1001.7 1002.0
12 18.09 штиль 0 4000 м 8/4 600 м
[Sc diur, vesp Ac trans Ci fib]
1002.3 1002.0 +34.5
15 18.09 штиль 0 4000 м 6/4 600 м
[Sc Ac trans]
+29.4 +24.2 74 +41 +41 опасность
перегрева
1004.5 1005.0
18 18.09 штиль 0 4000 м 5/3 600 м
[Sc Ac trans]
+28.8 +25.1 80 +42 +42 опасность
перегрева
1004.7 1005.0
21 18.09 штиль 0 4000 м 6/4 600 м
[Sc Ac trans]
+28.2 +25.1 83 +41 +41 опасность
перегрева
1003.5 1004.0
00 19.09 С 2 4000 м 8/3 600 м
[Sc Ac trans Ci fib]
+27.2 +24.3 84 +38 +38 очень
душно
1003.1 1003.0
03 19.09 С 2 4000 м 6/0
[Ac trans Ci fib]
1004.6 1005.0 +25.6
06 19.09 С 2 4000 м 8/0
[Ac trans Ci fib]
1003.7 1004.0
09 19.09 СВ 2 4000 м 8/3 600 м
[Sc Ac trans]
1001.1 1001.0
12 19.09 штиль 0 4000 м 8/4 600 м
[Sc Ac trans Ci fib]
999.7 1000.0 +33.6
15 19.09 штиль 0 4000 м 8/6 600 м
[St Ac trans]
+31.0 +26.3 76 +47 +47 опасность
перегрева
1002.4 1002.0
18 19.09 С 2 4000 м гроза, ливневой дождь 10/6 300 м
[Cb cap As op]
+29.4 +26.6 85 +45 +45 опасность
перегрева
1000.9 1001.0 2
21 19.09 С 1 4000 м слабый дождь {гроза} 10/6 300 м
[St As op]
+26.8 +25.7 94 +40 +40 очень
душно
999.5 1000.0 4
00 20.09 С 2 4000 м слабый дождь {гроза} 10/6 300 м
[St As op]
+26.2 +25.1 94 +38 +38 очень
душно
999.2 999.0 20
03 20.09 СВ 3 4000 м слабый дождь 10/6 300 м
[Frnb As op]
1000.2 1000.0 +23.6 29
06 20.09 С 2 4000 м слабый дождь 10/6 300 м
[Frnb As op]
997.7 998.0 14
09 20.09 В 3 4000 м {дождь} 10/6 300 м
[St Ac As]
995.3 995.0 31
12 20.09 В 4 4000 м слабый дождь 10/6 300 м
[St As op]
995.6 996.0 +29.4 31
15 20.09 В 10 4000 м слабый дождь 10/6 300 м
[St Ac As]
+28.4 +26.2 88 +43 +43 опасность
перегрева
997.6 998.0 32
18 20.09 ЮВ 16 2000 м слабый дождь 10/6 300 м
[Cb calv As op]
+28.4 +26.4 89 +43 +43 опасность
перегрева
995.7 996.0 38

 

Местоположение метеостанции Puri (Orissa, Индия): широта 19.80 долгота 85.82 высота над уровнем моря 6 м.

В архиве по умолчанию представлена погода в Puri за последнюю неделю. Архивные данные за месяц целиком и за предыдущие месяцы, начиная с января 2011 года, Вы можете получить, выбрав интересующий диапазон дат из раскрывающегося списка и нажав кнопку "Ввод!".


*Определитесь, кто Вы:
робот инопланетянин человек

Внимание! Время в таблицах - всемирное. Для получения местного времени необходимо прибавить поправку, которая в Puri равна 5.5 ч.

Смотрите также архив погоды в соседних городах и на ближайших метеорологических станциях:

Погода в Bhubaneswar (Orissa, Индия) (50 км)
Погода в Cuttack (Orissa, Индия) (75 км)
Погода в Paradip Port (Orissa, Индия) (106 км)
Погода в Gopalpur (Orissa, Индия) (115 км)
Погода в Angul (Orissa, Индия) (137 км)
Погода в Chandbali (Orissa, Индия) (145 км)
Погода в Phulbani (Orissa, Индия) (179 км)
Погода в Keongjhargarh (Orissa, Индия) (205 км)
Погода в Balasore (Orissa, Индия) (223 км)
Погода в Kalingapatam (Andhra Pradesh, Индия) (241 км)

Пояснения к столбцам:

Ветер - указаны скорость ветра в м/с - средняя за 10 мин, порывы в срок и между сроками (в фигурных скобках) и направление, откуда дует ветер: С - северный, СВ - северо-восточный, В - восточный, ЮВ - юго-восточный, Ю - южный, ЮЗ - юго-западный, З - западный, СЗ - северо-западный.
Видимость - горизонтальная дальность видимости в метрах или километрах. При видимости от 1 до 10 км при отсутствии осадков обычно наблюдается дымка, при ухудшении видимости до 1 км и менее - туман. В сухую погоду видимость может ухудшаться дымом, пылью или мглою.
Явления - указаны атмосферные явления, наблюдавшиеся в срок или в последний час перед сроком; фигурными скобками обозначены явления, наблюдавшиеся между сроками (за 1-3 часа до срока); квадратными скобками обозначены град или гололедные отложения с указанием их диаметра в мм.
Облачность - указаны через наклонную черту общая и нижняя облачность в баллах и высота нижней границы облаков в метрах; квадратными скобками обозначены формы облаков: Ci - перистые, Cs - перисто-слоистые, Cc - перисто-кучевые, Ac - высококучевые, As - высокослоистые, Sc - слоисто-кучевые, Ns - слоисто-дождевые, Cu - кучевые, Cb - кучево-дождевые. Подробнее классификацию облаков см. в Атласе облаков (PDF).
T - Температура воздуха - температура, измеренная на высоте 2 м над землей.
Td - Температура точки росы - температура, при понижении до которой содержащийся в воздухе водяной пар достигнет насыщения.
f - Относительная влажность воздуха - влажноcть воздуха, измеренная на высоте 2 м над землей.
Te - Эффективная температура - температура, которую ощущает одетый по сезону человек в тени. Характеристика душности погоды. При расчете учитывается влияние влажности воздуха и скорости ветра на теплоощущения человека.
Tes - Эффективная температура на солнце - температура, которую ощущает человек, с поправкой на солнечный нагрев. Характеристика знойности погоды. Зависит от высоты солнца над горизонтом, облачности и скорости ветра. Ночью, в пасмурную погоду, а также при ветре 12 м/с и более поправка равна нулю.
P - Атмосферное давление - приведенное к уровню моря атмосферное давление.
Po - Атмосферное давление - измеренное на уровне метеостанции атмосферное давление.
Tmin - Минимальная температура - минимум температуры воздуха на высоте 2 м над землей.
Tmax - Максимальная температура - максимум температуры воздуха на высоте 2 м над землей.
R - Количество осадков - Количество выпавших осадков за период времени, мм. При наведении курсора мыши на число - период времени, за который выпало указанное количество осадков.
R24 - Количество осадков - Количество выпавших осадков за 24 часа, мм.
S - Снежный покров - Высота снежного покрова, см. При наведении курсора мыши на число - состояние снежного покрова и степень покрытия местности в баллах.